AKJ31Q VOHS-VOBL

Flight info

Callsign AKJ31Q
Flight time 0h 51m
Altitude 40000
Route LURGI5 LURGI Q21 TELUV TELUV7F
Aircraft B38M/M-SDE1FGHILORVWXY/HB1

Departure

Time 2026-04-29 06:32
Airport Rajiv Gandhi International Airport (VOHS)

Arrival

Time 2026-04-29 07:23
Airport Kempegowda International Airport Bengaluru (VOBL)
Time Latitude Longitude Altitude Speed Heading
2026-04-29 06:14 17.23422 78.43030 1984 ft 0 kts 359°
2026-04-29 06:22 17.23410 78.43030 1986 ft 4 kts 357°
2026-04-29 06:23 17.23383 78.43033 1983 ft 4 kts 350°
2026-04-29 06:23 17.23357 78.43039 1985 ft 4 kts 339°
2026-04-29 06:23 17.23335 78.43053 1983 ft 4 kts 307°
2026-04-29 06:23 17.23329 78.43069 1982 ft 1 kts 269°
2026-04-29 06:24 17.23329 78.43072 1982 ft 0 kts 269°
2026-04-29 06:25 17.23330 78.43065 1982 ft 2 kts 271°
2026-04-29 06:26 17.23342 78.43048 1983 ft 3 kts 343°
2026-04-29 06:26 17.23358 78.43065 1983 ft 4 kts 86°
2026-04-29 06:26 17.23344 78.43107 1984 ft 9 kts 112°
2026-04-29 06:26 17.23290 78.43161 1984 ft 13 kts 168°
2026-04-29 06:27 17.23180 78.43163 1984 ft 18 kts 179°
2026-04-29 06:27 17.23088 78.43220 1982 ft 19 kts 99°
2026-04-29 06:27 17.23088 78.43371 1981 ft 23 kts 89°
2026-04-29 06:27 17.23091 78.43549 1982 ft 26 kts 89°
2026-04-29 06:28 17.23093 78.43751 1982 ft 30 kts 89°
2026-04-29 06:28 17.23093 78.43792 1982 ft 30 kts 89°
2026-04-29 06:28 17.23096 78.43960 1983 ft 22 kts 89°
2026-04-29 06:28 17.23098 78.44131 1987 ft 25 kts 89°
2026-04-29 06:29 17.23101 78.44322 1983 ft 27 kts 89°
2026-04-29 06:29 17.23103 78.44503 1983 ft 24 kts 89°
2026-04-29 06:29 17.23106 78.44680 1983 ft 25 kts 89°
2026-04-29 06:29 17.23108 78.44869 1982 ft 27 kts 89°
2026-04-29 06:30 17.23110 78.45068 1985 ft 28 kts 89°
2026-04-29 06:30 17.23073 78.45319 1982 ft 19 kts 164°
2026-04-29 06:30 17.22954 78.45285 1983 ft 17 kts 217°
2026-04-29 06:31 17.22909 78.45176 1983 ft 18 kts 269°
2026-04-29 06:31 17.22905 78.44925 1983 ft 70 kts 269°
2026-04-29 06:31 17.22895 78.44149 1984 ft 141 kts 270°
2026-04-29 06:31 17.22880 78.42932 2127 ft 185 kts 269°
2026-04-29 06:32 17.22881 78.41556 2958 ft 181 kts 269°
2026-04-29 06:32 17.22781 78.40257 3604 ft 183 kts 255°
2026-04-29 06:32 17.22113 78.39088 3834 ft 197 kts 220°
2026-04-29 06:32 17.20834 78.38501 4018 ft 212 kts 186°
2026-04-29 06:33 17.19315 78.38655 4149 ft 229 kts 173°
2026-04-29 06:33 17.17685 78.38831 4203 ft 239 kts 175°
2026-04-29 06:33 17.16009 78.38996 4302 ft 244 kts 175°
2026-04-29 06:33 17.14310 78.39174 4433 ft 247 kts 172°
2026-04-29 06:34 17.12622 78.39512 5157 ft 248 kts 169°
2026-04-29 06:34 17.10916 78.39858 5517 ft 251 kts 169°
2026-04-29 06:34 17.09203 78.40199 5663 ft 250 kts 170°
2026-04-29 06:34 17.07488 78.40536 5815 ft 251 kts 170°
2026-04-29 06:35 17.05770 78.40871 5933 ft 252 kts 170°
2026-04-29 06:35 17.04042 78.41207 6432 ft 253 kts 170°
2026-04-29 06:35 17.02302 78.41554 6731 ft 255 kts 169°
2026-04-29 06:35 17.00556 78.41904 6776 ft 256 kts 169°
2026-04-29 06:36 16.98751 78.42265 6882 ft 270 kts 169°
2026-04-29 06:36 16.96888 78.42637 6945 ft 276 kts 169°
2026-04-29 06:36 16.94996 78.43018 6979 ft 277 kts 169°
2026-04-29 06:36 16.93099 78.43397 6989 ft 278 kts 169°
2026-04-29 06:37 16.91198 78.43776 6999 ft 278 kts 169°
2026-04-29 06:37 16.89296 78.44154 7110 ft 280 kts 170°
2026-04-29 06:37 16.87377 78.44370 8146 ft 277 kts 175°
2026-04-29 06:37 16.86461 78.44459 8636 ft 280 kts 174°
2026-04-29 06:38 16.84570 78.44648 9577 ft 286 kts 174°
2026-04-29 06:38 16.82576 78.44855 10514 ft 294 kts 174°
2026-04-29 06:38 16.80476 78.45077 11135 ft 311 kts 174°
2026-04-29 06:38 16.78276 78.45312 11832 ft 324 kts 174°
2026-04-29 06:39 16.76020 78.45555 12755 ft 327 kts 174°
2026-04-29 06:39 16.73743 78.45800 13622 ft 332 kts 174°
2026-04-29 06:39 16.71428 78.46049 14464 ft 336 kts 174°
2026-04-29 06:39 16.69084 78.46302 15286 ft 341 kts 174°
2026-04-29 06:40 16.66742 78.46554 16064 ft 345 kts 174°
2026-04-29 06:40 16.64341 78.46813 16819 ft 349 kts 174°
2026-04-29 06:40 16.61909 78.47075 17547 ft 353 kts 174°
2026-04-29 06:40 16.59451 78.47339 18253 ft 357 kts 174°
2026-04-29 06:41 16.56978 78.47605 19027 ft 357 kts 174°
2026-04-29 06:41 16.54503 78.47871 19738 ft 360 kts 174°
2026-04-29 06:41 16.52020 78.48138 19959 ft 357 kts 174°
2026-04-29 06:41 16.49554 78.48403 20006 ft 356 kts 174°
2026-04-29 06:42 16.47094 78.48668 20002 ft 355 kts 174°
2026-04-29 06:42 16.44637 78.48932 20000 ft 355 kts 174°
2026-04-29 06:42 16.42181 78.49195 20002 ft 355 kts 174°
2026-04-29 06:42 16.39727 78.49459 20000 ft 355 kts 174°
2026-04-29 06:43 16.37268 78.49723 20002 ft 355 kts 174°
2026-04-29 06:43 16.34813 78.49987 20001 ft 355 kts 174°
2026-04-29 06:43 16.32359 78.50250 20001 ft 355 kts 174°
2026-04-29 06:43 16.29902 78.50514 20001 ft 355 kts 174°
2026-04-29 06:44 16.27446 78.50777 19999 ft 355 kts 174°
2026-04-29 06:44 16.24991 78.51041 20000 ft 355 kts 174°
2026-04-29 06:44 16.22538 78.51304 19999 ft 355 kts 174°
2026-04-29 06:44 16.20080 78.51344 19987 ft 353 kts 188°
2026-04-29 06:45 16.17648 78.50945 20004 ft 354 kts 188°
2026-04-29 06:45 16.15213 78.50554 20003 ft 354 kts 188°
2026-04-29 06:45 16.12778 78.50162 20002 ft 354 kts 188°
2026-04-29 06:45 16.10340 78.49770 19999 ft 354 kts 188°
2026-04-29 06:46 16.07906 78.49379 20000 ft 354 kts 188°
2026-04-29 06:46 16.05469 78.48988 20002 ft 354 kts 188°
2026-04-29 06:46 16.03036 78.48597 20001 ft 354 kts 188°
2026-04-29 06:46 16.00597 78.48205 20000 ft 354 kts 188°
2026-04-29 06:47 15.98163 78.47815 20000 ft 354 kts 188°
2026-04-29 06:47 15.95727 78.47424 20000 ft 354 kts 188°
2026-04-29 06:47 15.93294 78.47034 19999 ft 354 kts 188°
2026-04-29 06:47 15.90860 78.46643 19997 ft 354 kts 188°
2026-04-29 06:48 15.89247 78.46385 20001 ft 354 kts 188°
2026-04-29 06:48 15.85990 78.45863 20000 ft 354 kts 188°
2026-04-29 06:48 15.83588 78.45478 20002 ft 354 kts 188°
2026-04-29 06:48 15.81155 78.45088 20002 ft 354 kts 188°
2026-04-29 06:49 15.78719 78.44698 20002 ft 354 kts 188°
2026-04-29 06:49 15.76286 78.44308 20002 ft 354 kts 188°
2026-04-29 06:49 15.74640 78.44045 20000 ft 354 kts 188°
2026-04-29 06:49 15.71417 78.43529 19999 ft 354 kts 188°
2026-04-29 06:50 15.68983 78.43140 20002 ft 354 kts 188°
2026-04-29 06:50 15.66548 78.42750 20001 ft 354 kts 188°
2026-04-29 06:50 15.64904 78.42487 19999 ft 354 kts 188°
2026-04-29 06:50 15.61683 78.41972 19998 ft 354 kts 188°
2026-04-29 06:51 15.60070 78.41714 20000 ft 354 kts 188°
2026-04-29 06:51 15.57637 78.41326 20002 ft 354 kts 188°
2026-04-29 06:51 15.55205 78.40937 20002 ft 354 kts 188°
2026-04-29 06:51 15.52772 78.40548 20000 ft 354 kts 188°
2026-04-29 06:52 15.50339 78.40160 20002 ft 354 kts 188°
2026-04-29 06:52 15.47906 78.39771 19999 ft 354 kts 188°
2026-04-29 06:52 15.45472 78.39383 19999 ft 354 kts 188°
2026-04-29 06:52 15.43039 78.38994 20002 ft 354 kts 188°
2026-04-29 06:53 15.40605 78.38606 19999 ft 354 kts 188°
2026-04-29 06:53 15.38173 78.38218 20001 ft 354 kts 188°
2026-04-29 06:53 15.35741 78.37830 19997 ft 354 kts 188°
2026-04-29 06:53 15.33309 78.37442 20000 ft 354 kts 188°
2026-04-29 06:54 15.30876 78.37055 20002 ft 354 kts 188°
2026-04-29 06:54 15.28445 78.36667 20001 ft 354 kts 188°
2026-04-29 06:54 15.26015 78.36280 19997 ft 354 kts 188°
2026-04-29 06:54 15.23583 78.35892 20000 ft 354 kts 188°
2026-04-29 06:55 15.21152 78.35503 20004 ft 354 kts 188°
2026-04-29 06:55 15.18722 78.35113 20000 ft 354 kts 188°
2026-04-29 06:55 15.16290 78.34723 19999 ft 354 kts 188°
2026-04-29 06:55 15.13859 78.34333 20004 ft 354 kts 188°
2026-04-29 06:56 15.11426 78.33944 19998 ft 354 kts 188°
2026-04-29 06:56 15.08995 78.33554 19999 ft 353 kts 188°
2026-04-29 06:56 15.06565 78.33165 20001 ft 353 kts 188°
2026-04-29 06:56 15.04135 78.32776 19997 ft 353 kts 188°
2026-04-29 06:57 15.01704 78.32387 20000 ft 353 kts 188°
2026-04-29 06:57 14.99276 78.31998 20000 ft 353 kts 188°
2026-04-29 06:57 14.96845 78.31609 20000 ft 353 kts 188°
2026-04-29 06:57 14.94417 78.31221 20002 ft 353 kts 188°
2026-04-29 06:58 14.91986 78.30832 19998 ft 353 kts 188°
2026-04-29 06:58 14.89557 78.30444 20000 ft 353 kts 188°
2026-04-29 06:58 14.87126 78.30055 20002 ft 353 kts 188°
2026-04-29 06:58 14.84697 78.29667 20002 ft 353 kts 188°
2026-04-29 06:59 14.82268 78.29279 20004 ft 353 kts 188°
2026-04-29 06:59 14.79839 78.28889 20000 ft 353 kts 188°
2026-04-29 06:59 14.77408 78.28499 19999 ft 353 kts 188°
2026-04-29 06:59 14.74980 78.28110 20004 ft 353 kts 188°
2026-04-29 07:00 14.72584 78.27726 19999 ft 353 kts 188°
2026-04-29 07:00 14.70156 78.27337 19999 ft 353 kts 188°
2026-04-29 07:00 14.67727 78.26947 20003 ft 353 kts 188°
2026-04-29 07:00 14.65302 78.26559 20000 ft 353 kts 188°
2026-04-29 07:01 14.62872 78.26170 19999 ft 353 kts 188°
2026-04-29 07:01 14.60443 78.25781 19998 ft 353 kts 188°
2026-04-29 07:01 14.58015 78.25392 20000 ft 353 kts 188°
2026-04-29 07:01 14.55589 78.25003 19998 ft 353 kts 188°
2026-04-29 07:02 14.53158 78.24614 20002 ft 353 kts 188°
2026-04-29 07:02 14.50733 78.24226 20003 ft 353 kts 188°
2026-04-29 07:02 14.48303 78.23838 20000 ft 353 kts 188°
2026-04-29 07:02 14.45875 78.23450 20001 ft 353 kts 188°
2026-04-29 07:03 14.43449 78.23062 20000 ft 353 kts 188°
2026-04-29 07:03 14.41020 78.22673 19998 ft 353 kts 188°
2026-04-29 07:03 14.38597 78.22286 20000 ft 353 kts 188°
2026-04-29 07:03 14.36168 78.21898 20001 ft 353 kts 188°
2026-04-29 07:04 14.33743 78.21510 20001 ft 353 kts 188°
2026-04-29 07:04 14.31314 78.21122 20000 ft 353 kts 188°
2026-04-29 07:04 14.28888 78.20735 19999 ft 353 kts 188°
2026-04-29 07:04 14.26461 78.20348 20002 ft 353 kts 188°
2026-04-29 07:05 14.24035 78.19960 20002 ft 353 kts 188°
2026-04-29 07:05 14.21608 78.19573 19998 ft 353 kts 188°
2026-04-29 07:05 14.19182 78.19186 20001 ft 353 kts 188°
2026-04-29 07:05 14.16757 78.18778 19997 ft 353 kts 193°
2026-04-29 07:06 14.14510 78.17900 20010 ft 338 kts 205°
2026-04-29 07:06 14.12415 78.16902 19897 ft 324 kts 202°
2026-04-29 07:06 14.10321 78.16287 19973 ft 304 kts 188°
2026-04-29 07:06 14.08265 78.15930 20002 ft 303 kts 190°
2026-04-29 07:07 14.06136 78.15519 19919 ft 316 kts 191°
2026-04-29 07:07 14.03947 78.15088 19830 ft 323 kts 191°
2026-04-29 07:07 14.01724 78.14646 19681 ft 327 kts 191°
2026-04-29 07:07 13.99497 78.14202 19366 ft 325 kts 191°
2026-04-29 07:08 13.97292 78.13763 19041 ft 322 kts 191°
2026-04-29 07:08 13.95102 78.13327 18718 ft 319 kts 191°
2026-04-29 07:08 13.92926 78.12894 18383 ft 317 kts 191°
2026-04-29 07:08 13.90765 78.12464 18050 ft 315 kts 191°
2026-04-29 07:09 13.88618 78.12036 17716 ft 313 kts 191°
2026-04-29 07:09 13.86511 78.11617 17389 ft 311 kts 191°
2026-04-29 07:09 13.84393 78.11196 17060 ft 309 kts 191°
2026-04-29 07:09 13.82286 78.10777 16739 ft 307 kts 191°
2026-04-29 07:10 13.80192 78.10360 16406 ft 305 kts 191°
2026-04-29 07:10 13.78113 78.09947 16081 ft 303 kts 191°
2026-04-29 07:10 13.76047 78.09536 15757 ft 301 kts 191°
2026-04-29 07:10 13.73995 78.09128 15436 ft 299 kts 191°
2026-04-29 07:11 13.71957 78.08723 15118 ft 297 kts 191°
2026-04-29 07:11 13.69933 78.08321 14801 ft 295 kts 191°
2026-04-29 07:11 13.67922 78.07922 14480 ft 293 kts 191°
2026-04-29 07:11 13.65922 78.07524 14174 ft 292 kts 191°
2026-04-29 07:12 13.63936 78.07130 13861 ft 290 kts 191°
2026-04-29 07:12 13.61961 78.06738 13550 ft 288 kts 191°
2026-04-29 07:12 13.59998 78.06348 13243 ft 286 kts 191°
2026-04-29 07:12 13.58049 78.05961 12932 ft 284 kts 191°
2026-04-29 07:13 13.56111 78.05576 12631 ft 283 kts 191°
2026-04-29 07:13 13.54186 78.05194 12324 ft 281 kts 191°
2026-04-29 07:13 13.52272 78.04815 12021 ft 279 kts 191°
2026-04-29 07:13 13.50371 78.04438 11725 ft 278 kts 191°
2026-04-29 07:14 13.48479 78.04063 11428 ft 276 kts 191°
2026-04-29 07:14 13.46600 78.03690 11132 ft 274 kts 191°
2026-04-29 07:14 13.44736 78.03321 10831 ft 274 kts 191°
2026-04-29 07:14 13.42851 78.02947 10534 ft 278 kts 191°
2026-04-29 07:15 13.40942 78.02568 10228 ft 280 kts 191°
2026-04-29 07:15 13.39031 78.02189 9972 ft 280 kts 191°
2026-04-29 07:15 13.37116 78.01810 9664 ft 280 kts 191°
2026-04-29 07:15 13.35206 78.01431 9354 ft 279 kts 191°
2026-04-29 07:16 13.33308 78.01055 9045 ft 277 kts 191°
2026-04-29 07:16 13.31422 78.00682 8764 ft 274 kts 191°
2026-04-29 07:16 13.29599 78.00321 8624 ft 266 kts 191°
2026-04-29 07:16 13.27808 77.99966 8491 ft 258 kts 191°
2026-04-29 07:17 13.26071 77.99622 8331 ft 252 kts 191°
2026-04-29 07:17 13.24358 77.99283 8051 ft 250 kts 191°
2026-04-29 07:17 13.22679 77.98861 7761 ft 248 kts 204°
2026-04-29 07:17 13.21308 77.97827 7471 ft 245 kts 231°
2026-04-29 07:18 13.20564 77.96304 7176 ft 237 kts 258°
2026-04-29 07:18 13.20470 77.94632 6934 ft 234 kts 270°
2026-04-29 07:18 13.20504 77.92993 6674 ft 232 kts 270°
2026-04-29 07:18 13.20523 77.91367 6419 ft 223 kts 269°
2026-04-29 07:19 13.20535 77.89828 6265 ft 208 kts 269°
2026-04-29 07:19 13.20547 77.88389 6006 ft 197 kts 269°
2026-04-29 07:19 13.20560 77.87052 5738 ft 177 kts 269°
2026-04-29 07:19 13.20571 77.85870 5563 ft 159 kts 269°
2026-04-29 07:20 13.20580 77.84744 5355 ft 157 kts 269°
2026-04-29 07:20 13.20590 77.83627 5126 ft 156 kts 269°
2026-04-29 07:20 13.20599 77.82517 4899 ft 155 kts 269°
2026-04-29 07:20 13.20608 77.81409 4691 ft 155 kts 269°
2026-04-29 07:21 13.20617 77.80305 4488 ft 155 kts 269°
2026-04-29 07:21 13.20626 77.79204 4278 ft 154 kts 270°
2026-04-29 07:21 13.20634 77.78107 4074 ft 154 kts 270°
2026-04-29 07:21 13.20643 77.77012 3869 ft 153 kts 270°
2026-04-29 07:22 13.20653 77.75923 3668 ft 153 kts 270°
2026-04-29 07:22 13.20662 77.74837 3463 ft 152 kts 270°
2026-04-29 07:22 13.20671 77.73756 3270 ft 151 kts 270°
2026-04-29 07:22 13.20685 77.72685 3094 ft 149 kts 270°
2026-04-29 07:23 13.20693 77.71650 3014 ft 131 kts 270°
2026-04-29 07:23 13.20697 77.70965 3013 ft 74 kts 270°
2026-04-29 07:23 13.20696 77.70508 3013 ft 33 kts 263°
2026-04-29 07:23 13.20629 77.70325 3014 ft 6 kts 237°
2026-04-29 07:24 13.20626 77.70321 3014 ft 1 kts 237°
2026-04-29 07:24 13.20619 77.70309 3014 ft 3 kts 237°
2026-04-29 07:24 13.20606 77.70288 3014 ft 5 kts 238°
2026-04-29 07:24 13.20573 77.70270 3014 ft 7 kts 175°
2026-04-29 07:25 13.20533 77.70306 3014 ft 9 kts 106°
2026-04-29 07:25 13.20523 77.70379 3016 ft 12 kts 130°
2026-04-29 07:25 13.20440 77.70392 3014 ft 14 kts 180°
2026-04-29 07:25 13.20336 77.70391 3014 ft 14 kts 181°
2026-04-29 07:26 13.20287 77.70461 3014 ft 15 kts 90°
2026-04-29 07:26 13.20286 77.70574 3014 ft 17 kts 91°
2026-04-29 07:26 13.20284 77.70709 3014 ft 20 kts 91°
2026-04-29 07:26 13.20283 77.70849 3014 ft 21 kts 90°
2026-04-29 07:27 13.20281 77.71003 3014 ft 23 kts 90°
2026-04-29 07:27 13.20280 77.71176 3014 ft 24 kts 90°
2026-04-29 07:27 13.20278 77.71352 3014 ft 25 kts 91°
2026-04-29 07:27 13.20262 77.71518 3014 ft 19 kts 97°
2026-04-29 07:28 13.20259 77.71652 3014 ft 17 kts 90°
2026-04-29 07:28 13.20274 77.71722 3014 ft 5 kts 13°
2026-04-29 07:28 13.20318 77.71722 3014 ft 7 kts
2026-04-29 07:28 13.20331 77.71722 3014 ft 0 kts